Miscellaneous Local Product
Issued by NWS North Platte, NE

Home | Current Version | Previous Version | Text Only | Print | Product List | Glossary On
Versions: 1 2 3 4 5 6 7 8 9 10 11 12 13 14 15 16 17 18 19 20 21 22 23 24 25 26 27 28 29 30 31 32 33 34 35 36 37 38 39 40 41 42 43 44 45 46 47 48 49 50
996
AXUS43 KLBF 221910
MISLBF


WESTERN AND NORTH CENTRAL NEBRASKA HOURLY WEATHER ROUNDUP
NATIONAL WEATHER SERVICE NORTH PLATTE NE
200 PM CDT THU JUN 22 2017

NOTE: "FAIR" INDICATES FEW OR NO CLOUDS BELOW 12,000 FEET WITH NO
SIGNIFICANT WEATHER AND/OR OBSTRUCTIONS TO VISIBILITY.

NOTE: STATIONS NOT REPORTING VARIABLES SUCH AS SKY/WEATHER OR
PRESSURE ARE PROVIDED BY RAWS AND APRS NETWORKS AND ARE NOT UNDER
NATIONAL WEATHER SERVICE QUALITY CONTROL.

...OBSERVATIONS IN AND NEAR THE EASTERN PANHANDLE OF NEBRASKA...

CITY           SKY/WX    TMP DP  RH WIND       PRES   REMARKS
PINE RIDGE     PTSUNNY   75  55  49 N10       29.92F
GORDON         CLOUDY    71  51  50 N13G24    29.92S
CHADRON        MOSUNNY   77  53  43 NE13G18   29.92F
ALLIANCE       SUNNY     74  55  51 NE15      29.91F
SIDNEY         SUNNY     79  52  38 N23G32    29.92R
CRESCENT LAKE    N/A     73  55  53 NE16G24     N/A
$$

...OBSERVATIONS IN NORTHERN NEBRASKA AND FAR SOUTHERN SOUTH DAKOTA...

CITY           SKY/WX    TMP DP  RH WIND       PRES   REMARKS
WINNER         CLOUDY    69  53  56 NE10      29.86R
VALENTINE      CLOUDY    70  54  56 NW15G25   29.88R
THEDFORD       PTSUNNY   77  58  52 N17G31    29.84R
AINSWORTH      CLOUDY    73  58  60 N20G28    29.85R
O`NEILL        PTSUNNY   79  60  51 N17G24    29.77R
ORD            CLOUDY    83  62  49 N23G31    29.71R
BROKEN BOW     CLOUDY    80  63  55 N18G29    29.75R
VALENTINE NWR    N/A     70  56  61 N13G24      N/A
HALSEY           N/A     79  56  44 NE12G23     N/A
BUTTE            N/A     71  59  66 N13G20      N/A
CHAMBERS         N/A     86  61  42 N5          N/A
EWING            N/A     81  63  53 NE8G20      N/A
$$

...OBSERVATIONS IN SOUTHWEST NEBRASKA AND FAR NORTHEAST COLORADO...

CITY           SKY/WX    TMP DP  RH WIND       PRES   REMARKS
WRAY           FAIR      88  52  29 N23       29.83S
IMPERIAL       SUNNY     87  56  34 N22G32    29.80R
OGALLALA       SUNNY     84  56  39 N18G31    29.84R
NORTH PLATTE   SUNNY     85  59  41 N22G38    29.77R
MCCOOK         SUNNY     96  59  29 N21G30    29.69R HX  95
LEXINGTON      CLOUDY    88  62  41 N18G25    29.70R
STAPLETON        N/A     78  58  50 NE10G20     N/A
GOTHENBURG       N/A     87  59  38 N13         N/A
CALLAWAY         N/A     81  66  59 NE20        N/A
$$

...OBSERVATIONS IN CENTRAL LINCOLN COUNTY AREA...

CITY           SKY/WX    TMP DP  RH WIND       PRES   REMARKS
N.P. AIRPORT   SUNNY     85  59  41 N22G38    29.77R
N.P. DOWNTOWN    N/A     82  60  46 NE15G24     N/A
N.P. HILLCREST   N/A     81  59  46 NE24G35     N/A
$$

...SOME OBSERVATIONS FROM AROUND THE REGION...

CITY           SKY/WX    TMP DP  RH WIND       PRES   REMARKS
DENVER         CLOUDY    84  46  26 NE16      29.95R
LIMON          SUNNY     92  42  17 NE18G26   29.90F
ASPEN          SUNNY     80  35  19 W5        30.13F
LARAMIE        SUNNY     80  40  23 N16G24    30.05F
CASPER         SUNNY     71  35  26 VRB5      30.03F
CHEYENNE       SUNNY     72  40  31 N24G33    30.00F
SCOTTSBLUFF    SUNNY     78  50  37 NE16G25   29.92S
GRAND ISLAND   MOSUNNY   91  64  40 W7        29.64F HX  92
OMAHA          CLOUDY    88  68  51 S13       29.64F HX  91
SIOUX FALLS    CLOUDY    75  65  70 NE10      29.74F
PIERRE         SUNNY     75  46  35 VRB6G18   29.83F
RAPID CITY     PTSUNNY   72  44  36 N16G25    29.94F
BISMARCK       MOSUNNY   77  35  21 W23       29.82F
KANSAS CITY    MOSUNNY   85  72  65 S13       29.71F HX  91
HILL CITY      SUNNY    100  63  29 S6        29.63F HX 102
WICHITA        SUNNY     89  67  47 S21       29.68F HX  92
DODGE CITY     SUNNY     91  64  40 SW16      29.71F HX  92
OKLAHOMA CITY  MOSUNNY   90  56  31 VRB5      29.72F
DALLAS         CLOUDY    86  72  62 NW5       29.69S HX  92
AMARILLO       SUNNY     95  55  26 VRB5G16   29.81F HX  93
$$




USA.gov is the U.S. government's official web portal to all federal, state and local government web resources and services.